Regional Weather Roundup
Issued by NWS

Home | Current Version | Previous Version | Graphics & Text | Print | Product List | Glossary On
Versions: 1 2 3 4 5 6 7 8 9 10 11 12 13 14 15 16 17 18 19 20 21 22 23 24 25 26 27 28 29 30 31 32 33 34 35 36 37 38 39 40 41 42 43 44 45 46 47 48 49 50
763
ASUS43 KLOT 121503
RWRIL

ILLINOIS REGIONAL WEATHER ROUNDUP
NATIONAL WEATHER SERVICE CHICAGO/ROMEOVILLE IL
900 AM CST FRI FEB 12 2016

NOTE: "FAIR" INDICATES FEW OR NO CLOUDS BELOW 12,000 FEET WITH NO
SIGNIFICANT WEATHER AND/OR OBSTRUCTIONS TO VISIBILITY.

* THESE STATIONS ARE NOT UNDER NWS QUALITY CONTROL. THEY ALSO MAY NOT
  REPORT WEATHER SUCH AS PRECIPITATION OR FOG.

ILZ001-002-007-009-015-016-024-121600-
NORTHWEST ILLINOIS

CITY           SKY/WX    TMP DP  RH WIND       PRES   REMARKS
MOLINE         LGT SNOW  21  14  74 NW22G32   30.25R WCI   5
STERLING*      CLOUDY    19  14  79 NW16      30.19R WCI   5
SAVANNA*       CLOUDY    19  10  66 NW13      30.24R WCI   6
$$

ILZ003-004-008-010-011-017-018-121600-
NORTH CENTRAL ILLINOIS

CITY           SKY/WX    TMP DP  RH WIND       PRES   REMARKS
ROCKFORD       FLURRIES  18   9  68 NW14      30.20R WCI   4
FREEPORT*      CLOUDY    17  10  75 NW14      30.21S WCI   2
ROCHELLE*      LGT SNOW  17  11  77 NW12      30.20R WCI   5
DE KALB*       LGT SNOW  18  13  82 NW15G23   30.16S WCI   3
$$

ILZ005-006-012>014-019>023-121600-
NORTHEAST ILLINOIS

CITY           SKY/WX    TMP DP  RH WIND       PRES   REMARKS
CHICAGO-OHARE  FLURRIES  19  10  68 W15G25    30.14R WCI   5
CHICAGO-MIDWAY CLOUDY    21   9  59 W15       30.15S WCI   8
AURORA         LGT SNOW  20  14  77 NW17      30.17R VSB 1   WCI   5
LANSING*       CLOUDY    21  10  62 W9        30.15S WCI  11
WAUKEGAN       CLOUDY    18   8  65 W13G18    30.13R WCI   5
DUPAGE AIRPORT LGT SNOW  18  10  71 W13       30.15R WCI   5
WHEELING       FLURRIES  19  10  68 NW15G23   30.15R WCI   5
$$

LMZ740>746-121600-
SOUTHERN LAKE MICHIGAN

STATION/POSITION SKY/WX   TEMP    WIND        PRES    VSBY  WAVE
                          AIR SEA DIR/SP/G                  HT/PER
                          (F)     (DEG/KT/KT) (MB)    (MI)  (FT/S)
HARRISON CRIB              22     270/ 20/ 23   N/A
BURNHAM HARBOR             21     310/ 11/ 14   N/A
CALUMET HARBOR             21     250/  8/ 11 1019.9S
BURNS HARBOR               22     260/ 16/ 20 1021.0F
MICHIGAN CITY              22     230/ 19/ 21   N/A
$$

ILZ025>027-034>036-040-047-049-050-058-095>099-121600-
WEST-CENTRAL ILLINOIS

CITY           SKY/WX    TMP DP  RH WIND       PRES   REMARKS
QUINCY         CLOUDY    22  18  85 W12       30.28R WCI  10
MACOMB*        CLOUDY    23  20  89 NW12      30.28R WCI  12
$$

ILZ028>032-037-038-041>044-048-051>054-059>061-121600-
CENTRAL ILLINOIS

CITY           SKY/WX    TMP DP  RH WIND       PRES   REMARKS
BLOOMINGTON    CLOUDY    23  19  85 W12       30.20R WCI  12
DECATUR        CLOUDY    23  18  81 W7        30.21F WCI  15
PEORIA         CLOUDY    23  17  78 NW13      30.24R WCI  11
LINCOLN*       CLOUDY    24  20  86 W8        30.23S WCI  15
SPRINGFIELD    CLOUDY    24  19  81 W9        30.25S WCI  14
TAYLORVILLE    NOT AVBL
$$

ILZ033-039-045-046-055>057-062-063-121600-
EAST-CENTRAL ILLINOIS

CITY           SKY/WX    TMP DP  RH WIND       PRES   REMARKS
CHAMPAIGN      CLOUDY    23  19  85 W12       30.19F WCI  12
MATTOON        CLOUDY    22  17  81 NW10      30.20S WCI  11
$$

ILZ079-100>102-121600-
SOUTHWEST ILLINOIS

CITY           SKY/WX    TMP DP  RH WIND       PRES   REMARKS
ALTON          CLOUDY    25  21  86 W7        30.27R WCI  17
BELLEVILLE     MOSUNNY   27  24  88 NW3       30.26R
CAHOKIA*       CLOUDY    28  22  78 NW3       30.28R
SPARTA*        CLOUDY    27  23  85 CALM      30.26S
$$

ILZ064>066-069>071-074>076-080>082-084>086-088>090-092>094-121600-
SOUTH-CENTRAL ILLINOIS

CITY           SKY/WX    TMP DP  RH WIND       PRES   REMARKS
CARBONDALE     CLOUDY    27  22  81 N5        30.25R WCI  22
MARION         CLOUDY    28  25  86 N6        30.25S WCI  22
MT. VERNON     CLOUDY    25  19  80 CALM      30.25S
CENTRALIA*     CLOUDY    26  23  87 W3        30.24F
SALEM*         CLOUDY    26  22  86 CALM      30.24S
$$

ILZ067-068-072-073-078-083-087-091-121600-
SOUTHEAST ILLINOIS

CITY           SKY/WX    TMP DP  RH WIND       PRES   REMARKS
LAWRENCEVILLE  CLOUDY    24  19  81 NW3       30.24S
HARRISBURG*    CLOUDY    26  24  91 N3        30.26R
ROBINSON*      CLOUDY    24  19  81 W6        30.24S WCI  17
$$

ABBREVIATIONS USED IN REMARKS
   TC - TEMPERATURE IN CELSIUS
  WCI - WIND CHILL INDEX
   HX - HEAT INDEX
  VSB - VISIBILITY
$$





USA.gov is the U.S. government's official web portal to all federal, state and local government web resources and services.